Kuiper-00141

operational
NORAD ID: 65966 Int'l Des: 2025-228 Owner: KUIP Country: US Constellation: kuiper
NOTLE

About Kuiper-00141

Description loading...

Live Position

Loading 3D Globe...

Upcoming Passes

Altitude History

Altitude vs Time

uPlot chart will show altitude changes over time

Two-Line Element Set

1 65966U 25228V 25318.53130897 .00042525 00000-0 12291-2 0 9991
2 65966 51.8762 156.4877 0005540 259.6608 100.3754 15.35206593 6084
Epoch: Nov 14, 2025 • Age: 15 hours

Current Status

Altitude 460.3 km
Velocity 7.64 km/s
Sub-Earth Point 2.74°N, 136.78°W
Launch Date Oct 14, 2025
Age 32 days
Type internet

Technical Details

Classification Payload
Mass 490.00 kg
Dry Mass 490.00 kg
Total Mass 490.00 kg
Length 1.80 m
Diameter 0.70 m
Span 5.00 m
Shape Box + 2 pan
Manufacturer KUIP
Bus Type Kuiper
Phase Status In Orbit
Owner/State KUIP/US

Large Constellations

Loading constellations...